CAPE
0 0 0 0 0 0 0 0 0 0 0 0 0 0 0 0 0 0 0 0 0 0 0 0 0 0 0 0 0 0 0 0 0 0 0 0 0 0 0 0 0 0 0 0
0 0 0 0 0 0 0 0 0 0 0 0 0 0 0 0 0 0 0 0 0 0 0 0 0 0 0 0 0 0 0 0 0 0 0 0 0 0 0 0 0 0 0 0
0 0 0 0 0 0 0 0 0 0 0 0 0 0 0 0 0 0 0 0 0 0 0 0 0 0 0 0 0 0 0 0 0 0 0 0 0 0 0 0 0 0 0 0
0 0 0 0 0 0 0 0 0 0 0 0 0 0 0 0 0 0 0 0 0 0 0 0 0 0 0 0 0 0 0 0 0 0 0 0 0 0 0 0 0 0 0 0
0 0 0 0 0 0 0 0 0 0 0 0 0 0 0 0 0 0 0 0 0 0 0 0 0 0 0 0 0 0 0 0 0 0 0 0 0 0 0 0 0 0 0 0
0 0 0 0 0 0 0 0 0 0 0 0 0 0 0 0 0 0 0 0 0 0 0 0 0 0 0 0 0 0 0 0 0 0 0 0 0 0 0 0 0 0 0 0
0 0 0 0 0 0 0 0 0 0 0 0 0 0 0 0 0 0 0 0 0 0 0 0 0 0 0 0 0 0 0 0 0 0 0 0 0 0 0 0 0 0 0 0
0 0 0 0 0 0 0 0 0 0 0 0 0 0 0 0 0 0 0 0 0 0 0 0 0 0 0 0 0 0 0 0 0 0 0 0 0 0 0 0 0 0 0 0
0 0 0 0 0 0 0 0 0 0 0 0 0 0 0 0 0 0 0 0 0 0 0 0 0 0 0 0 0 0 0 0 0 0 0 0 0 0 0 0 0 0 0 0
0 0 0 0 0 0 0 0 0 0 0 0 0 0 0 0 0 0 0 0 0 0 0 0 0 0 0 0 0 0 0 0 0 0 0 0 0 0 0 0 0 0 0 0
0 0 0 0 0 0 0 0 0 0 0 0 0 0 0 0 0 0 0 0 0 0 0 0 0 0 0 0 0 0 0 0 0 0 0 0 0 0 0 0 0 0 0 0
0 0 0 0 0 0 0 0 0 0 0 0 0 0 0 0 0 0 0 0 0 0 0 0 0 0 0 0 0 0 0 0 0 0 0 0 0 0 0 0 0 0 0 0
0 0 0 0 0 0 0 0 0 0 0 0 0 0 0 0 0 0 0 0 0 0 0 0 0 0 0 0 0 0 0 0 0 0 0 0 0 0 0 0 0 0 0 0
0 0 0 0 0 0 0 0 0 0 0 0 0 0 0 0 0 0 0 0 0 0 0 0 0 0 0 0 0 0 0 0 0 0 0 0 0 0 0 0 0 0 0 0
0 0 0 0 0 0 0 0 0 0 0 0 0 0 0 0 0 0 0 0 0 0 0 0 0 0 0 0 0 0 0 0 0 0 0 0 0 0 0 0 0 0 0 0
0 0 0 0 0 0 0 0 0 0 0 0 0 0 0 0 0 0 0 0 0 0 0 0 0 0 0 0 0 0 0 0 0 0 0 0 0 0 0 0 0 0 0 0
0 0 0 0 0 0 0 0 0 0 0 0 0 0 0 0 0 0 0 0 0 0 0 0 0 0 0 0 0 0 0 0 0 0 0 0 0 0 0 0 0 0 0 0
0 0 0 0 0 0 0 0 0 0 0 0 0 0 0 0 0 0 0 0 0 0 0 0 0 0 0 0 0 0 0 0 0 0 0 0 0 0 0 0 0 0 0 0
0 0 0 0 0 0 0 0 0 0 0 0 0 0 0 0 0 0 0 0 0 0 0 0 0 0 0 0 0 0 0 0 0 0 0 0 0 0 0 0 0 0 0 0
0 0 0 0 0 0 0 0 0 0 0 0 0 0 0 0 0 0 0 0 0 0 0 0 0 0 0 0 0 0 0 0 0 0 0 0 0 0 0 0 0 0 0 0
0 0 0 0 0 0 0 0 0 0 0 0 0 0 0 0 0 0 0 0 0 0 0 0 0 0 0 0 0 0 0 0 0 0 0 0 0 0 0 0 0 0 0 0
0 0 0 0 0 0 0 0 0 0 0 0 0 0 0 0 0 0 0 0 0 0 0 0 0 0 0 0 0 0 0 0 0 0 0 0 0 0 0 0 0 0 0 0
0 0 0 0 0 0 0 0 0 0 0 0 0 0 0 0 0 0 0 0 0 0 0 0 0 0 0 0 0 0 0 0 0 0 0 0 0 0 0 0 0 0 0 0
0 0 0 0 0 0 0 0 0 0 0 0 0 0 0 0 0 0 0 0 0 0 0 0 0 0 0 0 0 0 0 0 0 0 0 0 0 0 0 0 0 0 0 0
0 0 0 0 0 0 0 0 0 0 0 0 0 0 0 0 0 0 0 0 0 0 0 0 0 0 0 0 0 0 0 0 0 0 0 0 0 0 0 0 0 0 0 0
0 0 0 0 0 0 0 0 0 0 0 0 0 0 0 0 0 0 0 0 0 0 0 0 0 0 0 0 0 0 0 0 0 0 0 0 0 0 0 0 0 0 0 0
CIN
0 0 0 0 0 0 0 0 0 0 0 0 0 0 0 0 0 0 0 0 0 0 0 0 0 0 0 0 0 0 0 0 0 0 0 0 0 0 0 0 0 0 0 0
0 0 0 0 0 0 0 0 0 0 0 0 0 0 0 0 0 0 0 0 0 0 0 0 0 0 0 0 0 0 0 0 0 0 0 0 0 0 0 0 0 0 0 0
0 0 0 0 0 0 0 0 0 0 0 0 0 0 0 0 0 0 0 0 0 0 0 0 0 0 0 0 0 0 0 0 0 0 0 0 0 0 0 0 0 0 0 0
0 0 0 0 0 0 0 0 0 0 0 0 0 0 0 0 0 0 0 0 0 0 0 0 0 0 0 0 0 0 0 0 0 0 0 0 0 0 0 0 0 0 0 0
0 0 0 0 0 0 0 0 0 0 0 0 0 0 0 0 0 0 0 0 0 0 0 0 0 0 0 0 0 0 0 0 0 0 0 0 0 0 0 0 0 0 0 0
0 0 0 0 0 0 0 0 0 0 0 0 0 0 0 0 0 0 0 0 0 0 0 0 0 0 0 0 0 0 0 0 0 0 0 0 0 0 0 0 0 0 0 0
0 0 0 0 0 0 0 0 0 0 0 0 0 0 0 0 0 0 0 0 0 0 0 0 0 0 0 0 0 0 0 0 0 0 0 0 0 0 0 0 0 0 0 0
0 0 0 0 0 0 0 0 0 0 0 0 0 0 0 0 0 0 0 0 0 0 0 0 0 0 0 0 0 0 0 0 0 0 0 0 0 0 0 0 0 0 0 0
0 0 0 0 0 0 0 0 0 0 0 0 0 0 0 0 0 0 0 0 0 0 0 0 0 0 0 0 0 0 0 0 0 0 0 0 0 0 0 0 0 0 0 0
0 0 0 0 0 0 0 0 0 0 0 0 0 0 0 0 0 0 0 0 0 0 0 0 0 0 0 0 0 0 0 0 0 0 0 0 0 0 0 0 0 0 0 0
0 0 0 0 0 0 0 0 0 0 0 0 0 0 0 0 0 0 0 0 0 0 0 0 0 0 0 0 0 0 0 0 0 0 0 0 0 0 0 0 0 0 0 0
0 0 0 0 0 0 0 0 0 0 0 0 0 0 0 0 0 0 0 0 0 0 0 0 0 0 0 0 0 0 0 0 0 0 0 0 0 0 0 0 0 0 0 0
0 0 0 0 0 0 0 0 0 0 0 0 0 0 0 0 0 0 0 0 0 0 0 0 0 0 0 0 0 0 0 0 0 0 0 0 0 0 0 0 0 0 0 0
0 0 0 0 0 0 0 0 0 0 0 0 0 0 0 0 0 0 0 0 0 0 0 0 0 0 0 0 0 0 0 0 0 0 0 0 0 0 0 0 0 0 0 0
0 0 0 0 0 0 0 0 0 0 0 0 0 0 0 0 0 0 0 0 0 0 0 0 0 0 0 0 0 0 0 0 0 0 0 0 0 0 0 0 0 0 0 0
0 0 0 0 0 0 0 0 0 0 0 0 0 0 0 0 0 0 0 0 0 0 0 0 0 0 0 0 0 0 0 0 0 0 0 0 0 0 0 0 0 0 0 0
0 0 0 0 0 0 0 0 0 0 0 0 0 0 0 0 0 0 0 0 0 0 0 0 0 0 0 0 0 0 0 0 0 0 0 0 0 0 0 0 0 0 0 0
0 0 0 0 0 0 0 0 0 0 0 0 0 0 0 0 0 0 0 0 0 0 0 0 0 0 0 0 0 0 0 0 0 0 0 0 0 0 0 0 0 0 0 0
0 0 0 0 0 0 0 0 0 0 0 0 0 0 0 0 0 0 0 0 0 0 0 0 0 0 0 0 0 0 0 0 0 0 0 0 0 0 0 0 0 0 0 0
0 0 0 0 0 0 0 0 0 0 0 0 0 0 0 0 0 0 0 0 0 0 0 0 0 0 0 0 0 0 0 0 0 0 0 0 0 0 0 0 0 0 0 0
0 0 0 0 0 0 0 0 0 0 0 0 0 0 0 0 0 0 0 0 0 0 0 0 0 0 0 0 0 0 0 0 0 0 0 0 0 0 0 0 0 0 0 0
0 0 0 0 0 0 0 0 0 0 0 0 0 0 0 0 0 0 0 0 0 0 0 0 0 0 0 0 0 0 0 0 0 0 0 0 0 0 0 0 0 0 0 0
0 0 0 0 0 0 0 0 0 0 0 0 0 0 0 0 0 0 0 0 0 0 0 0 0 0 0 0 0 0 0 0 0 0 0 0 0 0 0 0 0 0 0 0
0 0 0 0 0 0 0 0 0 0 0 0 0 0 0 0 0 0 0 0 0 0 0 0 0 0 0 0 0 0 0 0 0 0 0 0 0 0 0 0 0 0 0 0
0 0 0 0 0 0 0 0 0 0 0 0 0 0 0 0 0 0 0 0 0 0 0 0 0 0 0 0 0 0 0 0 0 0 0 0 0 0 0 0 0 0 0 0
0 0 0 0 0 0 0 0 0 0 0 0 0 0 0 0 0 0 0 0 0 0 0 0 0 0 0 0 0 0 0 0 0 0 0 0 0 0 0 0 0 0 0 0
Wind_Speed
24 30 33 31 29 26 27 27 28 28 23 24 29 33 32 26 20 13 10 8 7 8 14 14 12 10 9 10 10 12 13 14 15 15 15 15 16 17 18 20 22 22 23 24
24 31 25 23 22 23 25 27 26 24 24 25 26 34 32 26 21 15 10 8 8 9 11 12 10 10 9 10 12 13 13 15 15 15 14 15 15 16 17 19 21 22 23 25
26 24 22 23 23 23 24 27 27 24 22 23 28 33 27 23 22 21 20 17 13 9 8 9 9 9 11 11 13 13 13 14 15 14 14 15 15 16 17 19 20 22 23 25
18 20 21 21 24 23 25 23 23 23 22 27 22 32 25 23 24 22 21 17 12 9 9 9 9 10 12 13 13 13 13 13 13 14 14 15 16 17 17 18 20 21 23 24
21 21 21 22 22 21 22 19 19 21 22 24 23 27 25 23 24 22 19 17 11 8 7 8 10 12 13 13 13 12 12 13 13 14 14 15 16 16 17 18 20 21 22 24
16 15 18 19 17 18 14 16 16 18 21 30 25 25 26 22 22 22 19 16 10 9 10 11 12 13 14 13 12 12 12 12 12 13 14 16 16 16 18 18 19 21 22 23
16 18 17 17 18 17 18 17 22 26 27 30 20 24 26 22 20 20 20 13 11 10 10 11 13 13 12 11 11 12 12 13 13 14 15 16 16 17 17 18 19 20 21 22
19 22 19 18 19 20 20 19 22 27 27 26 21 26 21 20 21 20 20 13 11 11 13 14 14 13 11 12 12 13 13 13 14 15 16 17 17 18 18 19 19 19 20 22
15 18 17 16 17 18 20 22 17 20 21 26 23 23 25 22 20 20 18 13 13 14 14 16 15 14 13 14 14 14 14 15 16 17 18 19 19 19 19 19 20 21 22 23
15 14 17 17 16 16 18 13 20 21 27 30 26 25 22 19 16 18 18 16 16 17 17 17 17 17 17 17 18 17 17 18 19 19 19 20 20 20 21 21 22 23 24 25
15 14 16 17 19 18 17 19 18 17 20 25 29 25 19 20 19 18 18 16 16 17 19 20 21 22 21 21 21 20 19 19 20 20 21 21 21 21 22 23 24 25 26 26
16 13 13 17 19 19 20 19 17 21 23 21 24 27 22 23 21 17 16 16 16 17 19 20 22 24 25 26 24 23 22 21 21 22 22 23 24 24 25 26 27 28 28 28
18 16 14 16 19 20 20 20 19 18 19 21 24 25 21 20 20 17 15 15 16 17 19 20 22 24 27 28 28 26 24 23 23 23 23 24 25 26 28 29 30 30 30 31
19 21 20 18 17 16 18 19 18 18 21 24 22 32 25 22 19 17 16 16 17 18 19 21 23 25 27 28 28 27 26 25 24 24 24 26 28 30 31 32 32 33 33 34
21 23 25 27 28 27 27 22 9 9 15 17 31 24 27 19 17 16 16 16 17 18 20 22 24 26 26 27 27 27 26 26 25 25 26 28 30 31 33 35 36 35 35 36
22 24 24 27 26 29 34 36 18 10 19 19 32 36 24 27 19 17 15 15 17 19 21 23 24 25 26 26 27 27 28 28 28 29 30 31 33 35 36 37 39 39 40 40
11 12 20 23 25 29 34 22 11 20 21 21 24 27 23 23 19 17 16 17 19 20 22 23 25 26 27 27 28 30 30 30 31 32 34 35 36 38 40 40 41 41 42 41
10 9 12 18 22 28 22 20 20 17 20 16 21 24 25 25 22 19 18 18 19 21 23 25 26 28 29 29 30 31 31 32 34 36 37 38 40 41 42 43 45 44 43 45
20 14 17 23 22 29 27 24 23 22 25 23 25 25 24 21 21 22 19 18 20 22 23 25 26 27 28 30 30 31 33 35 37 39 40 41 41 44 46 47 47 46 45 45
18 18 16 20 27 31 22 22 21 21 30 25 22 21 19 19 27 26 20 20 22 24 25 27 29 30 31 31 32 35 37 38 40 41 41 41 42 44 47 47 47 45 43 45
19 21 19 21 28 29 24 24 23 29 28 22 21 20 20 27 28 27 21 23 25 26 28 29 30 31 33 34 36 39 40 42 43 43 43 43 44 46 46 47 45 45 44 44
22 22 23 23 28 34 23 21 25 23 23 24 25 24 25 27 27 25 24 26 28 29 29 30 33 35 36 37 39 43 45 46 47 47 47 47 47 47 46 46 46 43 42 43
26 22 25 22 25 22 21 23 24 25 28 28 27 25 25 26 27 25 27 29 28 29 31 32 34 37 39 41 42 47 49 48 49 49 49 49 49 48 46 44 43 43 41 41
23 21 25 26 25 24 23 24 25 25 27 26 25 25 25 27 29 29 28 28 29 30 32 35 38 42 45 45 46 46 47 48 49 50 50 49 48 48 44 42 41 40 40 40
23 21 24 27 25 26 26 25 27 26 25 24 24 26 28 28 29 28 28 30 31 33 36 39 43 46 49 50 51 49 48 47 50 49 48 47 46 45 44 41 39 38 36 34
24 26 28 31 28 29 30 26 26 25 25 24 25 26 26 26 28 28 30 31 33 38 41 45 47 49 51 51 52 51 48 47 48 48 47 46 44 42 40 39 39 34 33 33
Wind_Direction
224 218 222 225 229 232 233 239 243 249 261 261 262 265 269 281 291 294 294 305 312 321 319 320 327 338 343 342 345 346 348 351 354 356 359 359 360 8 10 10 9 8 7 8
218 217 226 226 229 232 235 238 245 256 259 264 270 266 273 279 286 291 289 294 300 312 315 319 327 332 335 337 338 341 345 348 352 356 359 2 4 5 7 7 5 4 5 2
216 219 229 227 229 232 239 241 245 255 264 268 272 271 277 284 287 291 295 296 296 294 302 312 321 327 329 332 335 339 344 348 352 358 1 1 3 2 0 0 360 358 360 359
223 229 227 228 231 239 240 250 252 255 263 263 276 269 281 288 287 292 297 299 297 291 299 306 316 322 325 328 334 338 345 350 355 356 356 354 353 352 355 356 355 357 357 356
226 225 227 230 236 244 245 256 254 257 262 270 274 277 283 291 292 296 302 306 304 297 298 307 315 320 323 327 332 342 346 348 351 352 353 351 350 351 352 350 349 350 351 352
232 241 239 240 244 248 244 255 262 265 268 265 273 278 283 294 299 302 303 308 312 305 307 312 317 320 323 330 334 338 340 343 348 349 349 347 346 345 344 345 346 346 347 350
232 236 244 246 242 248 251 251 254 256 260 264 284 282 281 295 303 310 309 312 313 312 314 316 316 320 325 329 333 335 336 336 339 340 340 341 342 341 339 338 339 340 343 346
226 227 238 249 248 248 249 255 256 256 262 272 286 281 294 302 301 305 309 311 315 314 313 316 321 325 328 331 331 331 330 332 334 334 333 333 332 331 332 332 334 336 338 339
235 239 248 253 255 254 253 256 271 274 282 279 284 292 297 300 302 306 311 313 312 311 317 322 327 329 329 328 327 327 327 327 326 325 325 326 327 327 328 329 329 330 331 332
248 249 250 255 258 266 264 265 267 275 273 275 284 291 296 310 311 309 309 308 309 314 322 327 328 327 325 324 325 325 323 321 322 322 323 325 325 325 324 325 324 324 324 326
251 263 257 257 257 260 265 269 278 284 283 283 286 294 305 309 310 311 312 313 315 320 325 329 328 326 324 323 322 322 322 321 321 322 323 323 323 322 321 320 320 320 321 322
252 271 271 264 267 269 270 275 277 280 284 291 294 294 302 305 309 314 318 322 325 328 329 331 331 331 331 326 323 322 321 321 322 323 323 323 324 323 322 320 320 319 318 319
246 268 276 278 274 271 275 275 281 289 295 290 292 297 310 314 315 319 322 324 324 326 328 332 335 335 336 335 332 327 323 322 323 323 323 324 323 323 322 321 320 318 317 316
242 248 260 276 284 284 284 284 282 286 291 293 292 295 307 310 312 314 316 321 324 326 329 333 334 337 340 342 343 341 337 332 328 327 326 325 324 323 322 321 320 318 317 315
227 217 230 236 246 266 274 290 291 248 288 293 299 303 309 311 309 310 314 317 320 324 328 330 332 334 339 342 344 346 346 345 341 335 330 327 326 324 323 321 319 318 317 315
246 229 252 250 277 270 248 256 297 265 296 292 297 299 310 313 315 310 310 313 317 321 325 327 330 333 334 339 340 341 340 339 338 335 331 329 327 325 324 322 320 319 316 315
341 334 307 298 295 290 276 303 287 301 301 301 300 308 313 315 314 308 307 310 313 317 322 325 327 329 332 335 336 335 334 335 333 331 329 327 326 323 322 321 320 318 316 315
333 342 332 317 316 299 312 317 318 313 314 308 312 316 318 318 319 318 316 314 316 319 321 323 325 327 329 330 331 331 331 331 330 329 328 328 326 324 323 321 319 318 316 313
301 312 315 308 306 307 307 312 313 313 313 316 312 314 318 323 324 321 320 319 318 319 321 322 323 325 326 327 328 329 328 327 326 325 325 325 326 323 321 319 318 318 317 315
305 306 305 309 304 303 320 320 320 322 310 321 323 324 326 327 319 320 318 319 320 321 322 322 323 324 323 324 325 323 323 323 322 322 322 323 323 323 322 321 319 319 317 315
305 303 293 296 301 307 312 314 319 309 313 325 327 325 323 319 320 322 321 320 322 322 322 322 323 322 322 323 322 321 321 319 320 320 320 320 321 321 321 321 319 318 317 316
300 300 301 301 300 302 316 317 311 318 322 322 323 320 316 319 322 323 323 322 322 320 322 323 322 322 324 324 323 320 319 319 319 317 316 316 319 320 321 320 319 319 318 317
300 299 303 298 305 313 316 315 318 319 318 319 318 319 319 319 320 320 319 319 320 322 323 324 323 323 323 324 323 320 320 320 319 318 316 316 317 319 320 320 319 319 318 317
303 305 302 304 306 307 311 316 317 318 318 319 319 319 320 319 319 319 321 322 323 325 325 325 324 323 322 323 322 321 321 321 320 318 317 318 318 319 319 319 318 317 317 317
306 308 304 303 306 309 310 313 316 317 319 320 320 320 319 320 320 322 323 324 325 325 326 325 324 322 321 321 320 321 322 322 320 319 319 318 318 318 318 318 318 318 317 317
300 300 300 301 308 308 310 316 317 315 316 318 319 320 323 323 323 324 324 326 327 325 325 324 323 322 321 321 320 321 322 322 320 319 319 319 319 319 320 320 320 321 320 320